Weather in Chelm

Poland     51°08′17″N   23°28′00″E
temp.,
°C
wind,
m/s
gust,
m/s
humid.,
%
clouds,
%
prec.,
mm/h
press.,
hPa
HPBL,
m
21 april, wed
wed2123:00+7ssw118042 0.0 101210
02:00+6wsw338264 0.0 101237
05:00+5w368973 0.1 101293
08:00+9w4672100 0.2 1012260
11:00+14wsw56535 0.0 10111245
14:00+15w674885 0.3 10102010
17:00+12w8968100 0.3 1011813
20:00+10ssw337558 0.8 101134
22 april, thu
thu2223:00+8wsw368269 0.1 101187
02:00+8sw368595 0.1 1011115
05:00+8sw3108420 0.0 1011260
08:00+9w697834 0.1 1013661
11:00+7nw6772100 0.0 1014701
14:00+5w5892100 1.2 1015629
17:00+8w5858100 0.3 10151448
20:00+5w36684 0.3 1016111
23 april, fri
fri2323:00+3w410775 0.0 1017261
02:00+2w513831 0.0 1017424
05:00+1wsw512805 0.0 1018415
08:00+4wnw712635 0.0 10191119
11:00+7wnw7954100 0.4 10191679
14:00+8wnw7854100 0.8 10191638
17:00+9w684683 0.6 10172113
20:00+4w61189100 1.1 1018753
24 april, sat
sat2423:00+1wnw6138896 0.4 1020592
02:000wnw511875 0.4 1021455
05:00−1w411875 0.0 1022303
08:00+3wnw68665 0.0 1023482
11:00+8wnw6839100 0.0 10222758
14:00+9wnw8103896 0.0 10212784
17:00+9wnw6104366 0.0 10202592
20:00+4w225828 0.0 102016
25 april, sun
sun2523:00+3nnw3567100 0.0 1021150
02:00+2nnw4796100 0.1 1022374
05:000nw5108018 0.1 1022493
08:00+2nw696913 0.1 1023956
11:00+6nw6846100 0.1 10232109
14:00+7wnw795098 0.5 10221860
17:00+7wnw6104891 0.3 10211975
20:00+4wnw496998 0.6 1021249